Погода Октябрьский Городок

Погода Октябрьский Городок : погода сейчас, прогноз погоды и архив. Всё, что Вы хотите узнать о погоде Октябрьский Городок!

Поиск расширенной информации на нашем сайте:

Другие новости

Новости СМИ2

Главная страница сайта

Новости сайта

03.07.2017

Напоминаем, что на нашем специализированном сайте Метеоцентр.Азия вы можете получить высокодетализированные автоматические прогнозы погоды по пунктам России, СНГ и мира в авиационном формате (включающие направление и скорость ветра, видимость, явления погоды, количество и форму облачности, нижнюю и верхнюю границу облачности).


Погода Октябрьский Городок - сегодня

Время (UTC), дата Ветер
(°,м/с) 
Видим.   Явления Облачность Т
(°С)
Тd
(°С)
f(%) Тe
(°С)
Pmin
(гПа)
dP
(гПа)
Po
(мм)
O2
(г/м3)
Тmin Tmax R s Состояние
почвы
03 17.10.18 280 (З) 20000 м    ясно 
+4.7 +3.8 94 +4  1024.9  -0.3  750  296  +2.7        влажная 
06 17.10.18 250 (З) 20000 м    ясно 
+8.7 +7.7 93 +8  1024.3  -0.2  750  291           
09 17.10.18 270 (З) 6{10}  20000 м    ясно 
+17.1 +7.1 52 +17  1023  -0.5  749  283           
15 17.10.18 300 (СЗ) 20000 м    ясно 
+12.1 +5.9 66 +12  1023.2  0.2  749  288    +19.4       
18 17.10.18 340 (С) 20000 м    ясно 
+11.7 +6 68 +11  1024.3  1.1  750  289           
21 17.10.18 040 (СВ) 20000 м    ясно 
+8.7 +6.3 85 +10  1025.9  1.3  751  292           
00 18.10.18 030 (СВ) 20000 м    ясно 
+5.3 +4 91 +6  1027  0.7  751  296           
03 18.10.18 тихо ()   20000 м    ясно 
+0.7 -0.5 92 +1  1028  0.6  752  302  +0.7        сухая 
06 18.10.18 100 (В) 4000 м  дымка  ясно 
+7.7 +5.4 85 +9  1028.1  0.8  752  294  -0.8         
09 18.10.18 260 (З) 20000 м    ясно 
+13.8 +5.6 58 +15  1027.3  -0.2  752  288           
12 18.10.18 260 (З) 20000 м    ясно 
+15.5 +4.8 49 +17  1026.1  -1.1  751  286           
15 18.10.18 140 (ЮВ) 20000 м    ясно 
+10.8 +5.3 69 +12  1025.7  -0.7  751  290    +15.7       
18 18.10.18 250 (З) 20000 м    ясно 
+7.8 +4.4 79 +9  1025.4  -0.6  750  293           
21 18.10.18 230 (ЮЗ) 20000 м    ясно 
+6.5 +4.1 85 +7  1025.6  0.1  750  295           
00 19.10.18 250 (З) 20000 м    ясно 
+4.8 +3.7 93 +4  1025.5  -0.3  750  296           
03 19.10.18 260 (З) 20000 м    ясно 
+4.4 +3.6 95 +4  1024.6  -0.9  750  297  +3.5        сухая 
06 19.10.18 250 (З) 20000 м    ясно 
+8.8 +5.1 78 +9  1024.3  0.1  750  292           
09 19.10.18 250 (З) 20000 м    ясно 
+16.1 +7.4 56 +16  1022.9  -0.7  749  284           
12 19.10.18 240 (ЮЗ) 20000 м    ясно 
+17.6 +7.2 50 +18  1021.4  -1.4  748  282           
15 19.10.18 220 (ЮЗ) 20000 м    ясно 
+10.9 +5.4 69 +11  1021  -0.9  747  289    +17.6       
18 19.10.18 250 (З) 20000 м    ясно 
+9.4 +3.1 65 +9  1020.3  -0.8  747  290           
21 19.10.18 240 (ЮЗ) 20000 м    ясно 
+6.9 +2.9 76 +7  1020.3  -0.3  747  293           
00 20.10.18 260 (З) 20000 м    ясно 
+5.6 +2.8 82 +5  1019.6  -0.8  746  294           
03 20.10.18 250 (З) 20000 м    ясно 
+4.7 +3 89 +6  1018.5  -1.1  745  295  +4.5        сухая 
06 20.10.18 тихо ()   20000 м    9/0 верхняя 
[Cs]
+7.7 +5.6 87 +8  1018  -0.3  745  291  +4.5         
Время (UTC), дата Ветер
(°,м/с) 
Видим.   Явления Облачность Т
(°С)
Тd
(°С)
f(%) Тe
(°С)
Pmin
(гПа)
dP
(гПа)
Po
(мм)
O2
(г/м3)
Тmin Tmax R s Состояние
почвы

Для получения пояснительной информации подведите курсор к названию столбца.

ПОГОДА Октябрьский Городок - архив

Всё, что Вы хотите узнать о погоде Октябрьский Городок - удобно и подробно!

Выберите нужную дату (начиная с 1 января 2015* года) и нажмите кнопку "Найти".
Будут отображены архивные сводки погоды по пункту Октябрьский Городок, начиная с указанной даты.


Отображать данные в формате CSV (для использования в таблицах Excel)


Внимание! Наш архив погоды предназначен исключительно для личного некоммерческого использования в познавательных целях. Если Вам необходимы официальные справки о состоянии погоды (для производственных, юридических, коммерческих и т.п. целей), обращайтесь в органы Росгидромета.

*Примечание: данная дата относится к архиву по метеостанциям СССР (Россия, СНГ, Балтия).
Архив по метеостанциям Зарубежной Европы и Азии (кроме Китая) хранится 10 дней, по другим регионам земного шара (Китай, Африка, Америка, Австралия, Океания) - 1 день.

Октябрьский Городок - район местоположения метеостанции


Название, широта, долгота, высота метеостанции:
Октябрьский Городок 51.6°ш. 45.4°д. 201 м над ур. моря [Российская Федерация]

Дополнительная информация

В oтличие oт бoльшинства пoгoдных сайтoв мы публикуем пoдрoбную метеoинфoрмацию в детальнoм прoфессиoнальнoм фoрмате.

Характеристики температуры и влажнoсти вoздуха измеряются на высoте 2 м в тени вдали oт зданий и деревьев.
Скoрoсть ветра измеряется на высoте 10 м (на урoвне рoста челoвека скoрoсть ветра ниже в 1.5-2 раза). Если метеoстанция нахoдится в гoрoде или в лесу, тo скoрoсть ветра занижена на 2-4 м/с пo сравнению с oткрытым местoм. Скoрoсть ветра над акватoриями крупных рек и oзёр, а также на вершинах хoлмoв на 2-5 м/с выше, чем в oбычных услoвиях.
Атмoсфернoе давление в разных тoчках местнoсти мoжет значительнo oтличаться oт давления на метеoстанции, в зависимoсти oт услoвий рельефа (при пoдъёме на 10 м давление пoнижается примернo на 1 мм рт.ст.).